Weather in Tagan

Russia / Novosibirsk Oblast     54°57′20″N   77°17′29″E
temp.,
°C
wind,
m/s
gust,
m/s
humid.,
%
clouds,
%
prec.,
mm/h
press.,
hPa
HPBL,
m
3 march, wed
wed301:00−17sw349895 0.1 101671
04:00−18ssw349982 0.1 101646
07:00−19ssw459990 0.1 101680
10:00−18ssw3698100 0.1 1016154
13:00−14ssw589599 0.1 1017285
16:00−12ssw71092100 0.0 1016432
19:00−14ssw71393100 0.1 1017424
22:00−14ssw81493100 0.0 1016460
4 march, thu
thu401:00−11ssw71493100 0.3 1015501
04:00−9ssw81493100 0.5 1013523
07:00−7ssw91493100 0.9 1013523
10:00−6ssw91693100 0.3 1011579
13:00−3ssw101493100 0.6 1011752
16:00−2ssw101594100 0.6 1010831
19:00−2ssw101695100 1.1 1009914
22:00−2ssw101793100 0.4 1007818
5 march, fri
fri501:00−2ssw101688100 0.6 1006808
04:00−3ssw91695100 0.2 1004671
07:00−2wsw71294100 1.0 1005814
10:00−8wsw71588100 0.0 1008467
13:00−8sw8148764 0.0 1011466
16:00−7sw101692100 0.3 1011955
19:00−6wsw91588100 0.7 1013901
22:00−7sw61492100 0.1 1014579
6 march, sat
sat601:00−8ssw71492100 0.1 1014397
04:00−4sw81495100 0.4 1013666
07:00−3sw91595100 1.4 1012809
10:00−4sw111694100 1.1 1010901
13:00−3sw111694100 1.9 1009952
16:00−2sw121792100 0.4 10091044
19:00−1sw111789100 0.6 10081052
22:00−1wsw91588100 0.1 10091032
7 march, sun
sun701:00−5wsw61289100 0.1 1012321
04:00−6sw4893100 0.0 1012185
07:00−5s4896100 0.1 1012226
10:00−4s81395100 0.9 1009485
13:00−3ssw101592100 1.1 1008685
16:00−2sw101490100 0.1 1007915
19:00−1sw91590100 0.2 1007803
22:000sw81590100 0.1 1008831